Hourly Weather Roundup
Issued by NWS Central Illinois

Home | Current Version | Previous Version | Text Only | Print | Product List | Glossary On
Versions: 1 2 3 4 5 6 7 8 9 10 11 12 13 14 15 16 17 18 19 20 21 22 23 24 25 26 27 28 29 30 31 32 33 34 35 36 37 38 39 40 41 42 43 44 45 46 47 48 49 50
683
NZUS43 KILX 231910
HWRILX

Area Weather Roundup
National Weather Service Lincoln IL
200 PM CDT SUN APR 23 2017

NOTE:  "FAIR" indicates few or no clouds below 12,000 feet, with
       no sigificant weather and/or obstructions to visibility.


CITY           SKY/WX    TMP DP  RH WIND       PRES   REMARKS
Bloomington    SUNNY     69  27  20 N18G29    30.07F
Champaign      SUNNY     70  30  22 NE9G18    30.04F
Danville       SUNNY     68  29  23 NE13G18   30.02F
Decatur        SUNNY     69  37  30 NE13G21   30.05F
Effingham      SUNNY     69  35  28 N13G18    30.03S
Flora          SUNNY     68  37  31 NE15G21   30.01S
Galesburg      SUNNY     69  31  24 E3        30.07F
Jacksonville   SUNNY     67  28  23 N5G10     30.07F
Lacon          SUNNY     67  33  28 N8        30.06F
Lawrenceville  SUNNY     69  36  29 N16G25    29.99F
Litchfield     SUNNY     67  33  28 NE13G20   30.04F
$$


CITY           SKY/WX    TMP DP  RH WIND       PRES   REMARKS
Lincoln        SUNNY     70  35  27 NE10G18   30.06F
Macomb         SUNNY     69  30  23 NE9       30.10F
Mattoon        SUNNY     69  31  24 NE21G28   30.02F
Mt Carmel AP   SUNNY     68  34  28 NE16      29.97F
Olney-Noble AP SUNNY     67  35  30 NE14G21   30.00F
Paris AP       SUNNY     68  31  24 NE15G22   30.03F
Peoria         SUNNY     69  32  25 E12       30.07F
Pontiac        SUNNY     70  25  18 NE9       30.07F
Rantoul        SUNNY     71  28  20 NE13      30.05F
Robinson       SUNNY     69  33  27 NE17G23   30.01S
Springfield    SUNNY     71  30  21 NE12G21   30.06F
Taylorville    SUNNY     69  29  22 NE13G20   30.05S
$$

...REGIONAL REPORTS...


CITY           SKY/WX    TMP DP  RH WIND       PRES   REMARKS
Chicago O`Hare SUNNY     71  25  17 N6        30.06F
Kankakee       SUNNY     71  24  17 N6G16     30.07F
Moline         SUNNY     70  33  25 VRB7      30.07F
Mount Sterling SUNNY     67  30  25 E6        30.08F
Mount Vernon   SUNNY     67  34  29 NE16G22   29.99F
Pittsfield     SUNNY     68  29  23 NE8       30.09F
Quincy         SUNNY     69  27  20 NE8       30.08F
Rockford       MOSUNNY   70  32  24 SW5       30.08F
$$


CITY           SKY/WX    TMP DP  RH WIND       PRES   REMARKS
Burlington     SUNNY     68  34  28 VRB6      30.08F
Cedar Rapids   SUNNY     69  34  27 S6        30.06F
Des Moines     MOSUNNY   70  33  25 S8        30.08F
Kirksville     SUNNY     69  32  25 SE3       30.11F
Ottumwa        SUNNY     70  33  25 CALM      30.08F
St Louis       SUNNY     70  32  24 N14       30.05F
$$


CITY           SKY/WX    TMP DP  RH WIND       PRES   REMARKS
Terre Haute    SUNNY     69  31  24 NE13      30.01F
Evansville     SUNNY     69  38  32 NE18G29   29.94F
Indianapolis   MOSUNNY   68  35  29 NE12G23   30.00F
Lafayette      SUNNY     65  35  33 NE12G17   30.05F
Madison        MOSUNNY   69  35  28 VRB5      30.04F
Milwaukee      MOSUNNY   48  40  73 NE25G33   30.08R
$$






USA.gov is the U.S. government's official web portal to all federal, state and local government web resources and services.